Voltar ao catálogo

CZ-6A DEB

AtivoPO
NORAD 55208·DEBRIS·🇨🇳 China

Lançado Nov 11, 2022 de Taiyuan Satellite Launch Center

Loading…

Próximas Passagens (próximas 24 horas)

TLE

AtualizadoSource: Space-Track

Época: Sep 14, 2026, 04:19 UTC

1 55208U 22151VZ  26257.17997189  .00026022  00000-0  21990-2 0  9999
2 55208  98.6232 341.8831 0038122 322.6228  37.2340 14.97495053198814

Acompanhe CZ-6A DEB em tempo real com AllMySat

Download on the App Store